COSMOS 800

Satellite information

Favourite Embed

Satellite Type and Status

PAYLOADIN ORBIT

Key statistics

Satellite COSMOS 800 at a glance.

Uptime

17993

Days in orbit

Revolutions

≈ 13.7

Per day

Orbit

LEO

Low Earth Orbit

Inclination

83.0

Latest

Satellite identification and parameters

Extended collection of information and parameters for COSMOS 800.

Object identification

Identified? True

Debris? False

Object name: COSMOS 800

International designator: 1976-011A

Object number (NORAD): 8645

Object ID (CCSDS): 8645

Country: COMMONWEALTH OF INDEPENDENT STATES (CIS)

Current information (Y/N): Y

RCS size: LARGE

Orbital parameters

Period: 104.944 minutes

Inclination: 82.9746 deg

SMA: 7369.948 km

Apoapsis: 1008.062 km

Periapsis: 975.564 km

RAAN: 53.5353 deg

Eccentricy: 0.0022048

Argument of periapsis: 27.6696 deg

Mean anomaly: 6.3324 deg

Mean motion: 13.7216432 rev/day

Mean motion (dot): 0.00000061 rev/day2

B* drag term: 0.000050618 1/REarth

Two-line elements (TLE)

Creation date: May 9, 2025, 2:46 a.m.

Reference frame: TEME

Reference center: EARTH

Epoch: May 8, 2025, 5:37 p.m. UTC

TLE line 0: 0 COSMOS 800

TLE line 1: 1 08645U 76011A 25128.73425405 .00000061 00000-0 50618-4 0 9997

TLE line 2: 2 08645 82.9746 53.5353 0022048 27.6696 6.3324 13.72164320465920

Live tracking on map

Real-time ground track for satellite COSMOS 800.

In-orbit conjunctions

A list of the most updated potential collisions computed for object COSMOS 800.

Target Orbit TCA Probability of collision Miss distance Type
FENGYUN 1C DEB SSO 2024-12-10 00:57:01 0.0002901406 540.0 (m) DEBRIS
FENGYUN 1C DEB SSO 2024-09-15 10:21:49 0.000294503 339.0 (m) DEBRIS

Associated space launch

The first soviet navigation system called Tsiklon consisted of Zaliv satellites in low earth orbit.

COSMOS 800 was lifted into orbit during the mission ‘Kosmos-3M | Zaliv 20’, on board a Kosmos-3M space rocket.

The launch took place on Feb. 3, 1976, 8:16 a.m. from 132/1 (132L).

For more information about the launch, click the button.

Launch to space Kosmos-3M | Zaliv 20
Kosmos-3M | Zaliv 20

Agency: N/A

Status: Launch Successful

Launch date: Feb. 3, 1976, 8:16 a.m. UTC

Rocket: Kosmos-3M

Launch pad: 132/1 (132L)

Location: Plesetsk Cosmodrome, Russian Federation

...

Latest news about this satellite

There are no fresh news available about this satellite. Check back as we update our databases every day.


Newsletter sign-up

Weekly statistics, charts and insights to help you stay on top of the space industry.